EW2725 Weather Reports


Display with metric or nautical units.
time (UTC)temp
F
wind
direction
speed
MPH
gust
MPH
rain 1hr
in
rain 24hr
in
rain mn
in
humidity
%
barometer
mb
20210227095525 31 160 2.0 6.0 0.00 0.00 0.00 89 1030.7
20210227095019 30 149 2.0 9.0 0.00 0.00 0.00 90 1030.8
20210227094521 30 147 1.0 6.0 0.00 0.00 0.00 91 1030.8
20210227094019 29 144 3.0 10.0 0.00 0.00 0.00 91 1030.9
20210227093529 28 153 1.0 6.0 0.00 0.00 0.00 91 1031.0
20210227092640 27 144 0.0 3.0 0.00 0.00 0.00 90 1031.1
20210227092025 27 144 1.0 3.0 0.00 0.00 0.00 90 1031.1
20210227091020 27 161 0.0 0.0 0.00 0.00 0.00 90 1031.2
20210227090519 27 161 0.0 2.0 0.00 0.00 0.00 90 1031.3
20210227085536 27 162 0.0 3.0 0.00 0.00 0.00 90 1031.4
20210227085019 27 162 0.0 1.0 0.00 0.00 0.00 90 1031.5
20210227084522 27 162 0.0 1.0 0.00 0.00 0.00 90 1031.5
20210227083512 27 169 0.0 3.0 0.00 0.00 0.00 90 1031.7
20210227083034 27 169 0.0 3.0 0.00 0.00 0.00 90 1031.6
20210227081020 27 170 0.0 1.0 0.00 0.00 0.00 90 1032.0
20210227080519 27 170 0.0 1.0 0.00 0.00 0.00 90 1032.1
20210227080015 27 170 0.0 2.0 0.00 0.00 0.00 90 1032.1
20210227075105 27 170 0.0 0.0 0.00 0.00 0.00 89 1032.2
20210227074518 27 170 0.0 0.0 0.00 0.00 0.00 89 1032.2
20210227074021 27 170 0.0 1.0 0.00 0.00 0.00 89 1032.2
20210227073523 27 170 0.0 1.0 0.00 0.00 0.00 88 1032.3
20210227073023 28 170 0.0 1.0 0.00 0.00 0.00 88 1032.4
20210227072022 27 170 0.0 2.0 0.00 0.00 0.00 88 1032.7
20210227071520 28 170 0.0 2.0 0.00 0.00 0.00 88 1032.8
20210227071029 28 170 0.0 1.0 0.00 0.00 0.00 87 1032.8
20210227070518 28 170 0.0 3.0 0.00 0.00 0.00 86 1032.8
20210227065526 29 170 0.0 0.0 0.00 0.00 0.00 85 1032.9
20210227065139 29 170 0.0 1.0 0.00 0.00 0.00 85 1033.1
20210227064029 29 170 0.0 2.0 0.00 0.00 0.00 85 1033.2
20210227063519 29 170 0.0 2.0 0.00 0.00 0.00 85 1033.2
20210227063021 30 170 0.0 1.0 0.00 0.00 0.00 84 1033.2
20210227062548 30 170 0.0 2.0 0.00 0.00 0.00 85 1033.2
20210227062033 29 170 0.0 3.0 0.00 0.00 0.00 85 1033.3
20210227061520 30 171 0.0 1.0 0.00 0.00 0.00 84 1033.4
20210227060520 30 171 0.0 2.0 0.00 0.00 0.00 84 1033.4
20210227055514 30 171 0.0 2.0 0.00 0.00 0.00 84 1033.5
20210227054021 31 173 0.0 3.0 0.00 0.00 0.00 84 1033.8
20210227052535 31 209 1.0 3.0 0.00 0.00 0.00 84 1034.0
20210227052024 31 208 1.0 3.0 0.00 0.00 0.00 84 1034.0
20210227051515 31 202 0.0 2.0 0.00 0.00 0.00 84 1033.7
20210227051023 31 205 0.0 3.0 0.00 0.00 0.00 84 1033.6
20210227050521 31 187 1.0 3.0 0.00 0.00 0.00 83 1033.8
20210227050026 31 187 1.0 3.0 0.00 0.00 0.00 84 1033.8
20210227045521 31 165 1.0 5.0 0.00 0.00 0.00 84 1033.7
20210227045057 31 192 1.0 3.0 0.00 0.00 0.00 84 1033.7
20210227044544 31 184 1.0 3.0 0.00 0.00 0.00 83 1033.3
20210227043516 31 184 1.0 3.0 0.00 0.00 0.00 83 1033.2
20210227043031 31 185 0.0 0.0 0.00 0.00 0.00 83 1033.9
20210227042519 32 185 1.0 2.0 0.00 0.00 0.00 82 1033.9
20210227042025 32 185 1.0 3.0 0.00 0.00 0.00 82 1034.0
20210227041526 32 184 0.0 2.0 0.00 0.00 0.00 82 1033.9
20210227041022 32 185 1.0 2.0 0.00 0.00 0.00 82 1033.9
20210227040521 32 184 1.0 3.0 0.00 0.00 0.00 82 1033.7
20210227040033 32 184 1.0 3.0 0.00 0.00 0.00 82 1033.8
20210227035520 32 165 1.0 3.0 0.00 0.00 0.00 82 1033.6
20210227035055 32 165 1.0 3.0 0.00 0.00 0.00 81 1033.6
20210227034022 31 166 0.0 5.0 0.00 0.00 0.00 82 1033.6
20210227032534 32 137 1.0 3.0 0.00 0.00 0.00 81 1033.6
20210227032028 32 137 1.0 5.0 0.00 0.00 0.00 81 1033.5
20210227031522 32 212 0.0 2.0 0.00 0.00 0.00 81 1033.6
20210227031021 32 215 1.0 3.0 0.00 0.00 0.00 81 1033.5
20210227030530 32 217 0.0 3.0 0.00 0.00 0.00 81 1033.8
20210227025521 32 218 1.0 5.0 0.00 0.00 0.00 81 1033.7
20210227024020 32 196 1.0 3.0 0.00 0.00 0.00 82 1033.5
20210227022021 32 212 1.0 5.0 0.00 0.00 0.00 82 1033.4
20210227021019 32 213 1.0 3.0 0.00 0.00 0.00 82 1033.4
20210227020520 32 213 2.0 5.0 0.00 0.00 0.00 82 1033.4
20210227015106 31 196 2.0 3.0 0.00 0.00 0.00 83 1033.2
20210227014520 31 198 1.0 7.0 0.00 0.00 0.00 83 1033.0
20210227013520 29 145 0.0 3.0 0.00 0.00 0.00 83 1033.0
20210227013023 29 145 0.0 2.0 0.00 0.00 0.00 83 1032.9
20210227012605 29 145 0.0 1.0 0.00 0.00 0.00 83 1032.9
20210227012024 29 145 0.0 2.0 0.00 0.00 0.00 82 1033.0
20210227005517 28 145 0.0 0.0 0.00 0.00 0.00 81 1032.9
20210227005238 28 145 0.0 2.0 0.00 0.00 0.00 81 1033.1
20210227004519 28 145 0.0 2.0 0.00 0.00 0.00 82 1033.2
20210227004024 28 145 0.0 0.0 0.00 0.00 0.00 82 1033.0
20210227003032 28 145 0.0 0.0 0.00 0.00 0.00 81 1033.2
20210227002600 28 145 0.0 0.0 0.00 0.00 0.00 81 1033.1
20210227002020 28 145 0.0 0.0 0.00 0.00 0.00 81 1033.2
20210227001021 29 145 0.0 0.0 0.00 0.00 0.00 79 1033.0
20210227000538 29 145 0.0 1.0 0.00 0.00 0.00 79 1033.1
20210227000038 29 145 0.0 0.0 0.00 0.00 0.00 79 1033.0
20210226235521 29 145 0.0 0.0 0.00 0.00 0.00 79 1033.0
20210226235027 29 145 0.0 1.0 0.00 0.00 0.00 79 1033.1
20210226234519 29 145 0.0 0.0 0.00 0.00 0.00 79 1033.1
20210226234020 29 145 0.0 0.0 0.00 0.00 0.00 78 1033.1
20210226233520 29 145 0.0 0.0 0.00 0.00 0.00 77 1033.2
20210226233114 29 145 0.0 0.0 0.00 0.00 0.00 77 1033.2
20210226232626 30 145 0.0 0.0 0.00 0.00 0.00 76 1033.1
20210226232026 30 145 0.0 0.0 0.00 0.00 0.00 76 1033.2
20210226231531 30 145 0.0 1.0 0.00 0.00 0.00 75 1033.4
20210226231024 30 145 0.0 0.0 0.00 0.00 0.00 75 1033.5
20210226230518 30 145 0.0 0.0 0.00 0.00 0.00 74 1033.3
20210226230024 31 145 0.0 0.0 0.00 0.00 0.00 73 1033.3
20210226225520 31 145 0.0 2.0 0.00 0.00 0.00 72 1033.1
20210226225027 32 145 0.0 0.0 0.00 0.00 0.00 72 1033.2
20210226224520 32 145 0.0 2.0 0.00 0.00 0.00 71 1033.1
20210226224019 32 146 0.0 0.0 0.00 0.00 0.00 70 1033.0
20210226223022 34 150 0.0 6.0 0.00 0.00 0.00 73 1032.9
20210226222543 34 156 1.0 6.0 0.00 0.00 0.00 73 1033.0
20210226222026 34 135 0.0 1.0 0.00 0.00 0.00 72 1032.9
20210226221019 34 198 0.0 1.0 0.00 0.00 0.00 72 1032.9
20210226220519 34 198 0.0 1.0 0.00 0.00 0.00 72 1032.7
20210226220023 35 198 1.0 3.0 0.00 0.00 0.00 71 1032.6
20210226215528 35 198 1.0 3.0 0.00 0.00 0.00 70 1032.6
20210226214528 35 198 2.0 3.0 0.00 0.00 0.00 67 1032.5
20210226213516 36 216 4.0 9.0 0.00 0.00 0.00 64 1032.4
20210226213023 36 207 3.0 8.0 0.00 0.00 0.00 62 1032.5
20210226212028 36 229 3.0 5.0 0.00 0.00 0.00 60 1032.3
20210226211522 37 214 2.0 6.0 0.00 0.00 0.00 61 1032.3
20210226210522 37 222 2.0 8.0 0.00 0.00 0.00 63 1032.3
20210226210019 37 197 3.0 8.0 0.00 0.00 0.00 62 1032.1
20210226205511 36 208 2.0 6.0 0.00 0.00 0.00 60 1032.2
20210226205023 37 162 0.0 1.0 0.00 0.00 0.00 57 1032.0
20210226204521 37 166 0.0 3.0 0.00 0.00 0.00 57 1031.9
20210226204022 37 97 1.0 3.0 0.00 0.00 0.00 57 1031.9
20210226203521 36 145 0.0 3.0 0.00 0.00 0.00 58 1031.9
20210226203044 36 126 1.0 3.0 0.00 0.00 0.00 57 1031.6
20210226202019 36 142 0.0 2.0 0.00 0.00 0.00 57 1031.6
20210226201519 36 144 0.0 5.0 0.00 0.00 0.00 57 1031.4
20210226201019 36 149 0.0 2.0 0.00 0.00 0.00 57 1031.4
20210226200506 36 150 0.0 1.0 0.00 0.00 0.00 57 1031.4
20210226200026 36 152 0.0 3.0 0.00 0.00 0.00 56 1031.1
20210226195520 36 84 1.0 6.0 0.00 0.00 0.00 57 1031.1
20210226195021 36 148 1.0 3.0 0.00 0.00 0.00 56 1030.9
20210226194518 36 104 0.0 1.0 0.00 0.00 0.00 56 1030.7
20210226194007 36 104 0.0 1.0 0.00 0.00 0.00 56 1030.8
20210226193517 36 103 0.0 3.0 0.00 0.00 0.00 56 1030.5
20210226192023 36 144 0.0 7.0 0.00 0.00 0.00 55 1030.3
20210226191517 36 151 2.0 10.0 0.00 0.00 0.00 55 1030.1
20210226191028 36 147 1.0 3.0 0.00 0.00 0.00 54 1030.2
20210226190533 36 27 0.0 1.0 0.00 0.00 0.00 57 1030.2
20210226190026 35 27 0.0 3.0 0.00 0.00 0.00 57 1030.1
20210226185157 36 159 2.0 7.0 0.00 0.00 0.00 58 1030.1
20210226184521 35 148 1.0 7.0 0.00 0.00 0.00 58 1030.1
20210226183018 37 130 1.0 3.0 0.00 0.00 0.00 56 1030.4
20210226182024 37 114 0.0 3.0 0.00 0.00 0.00 56 1030.6
20210226175023 37 92 1.0 3.0 0.00 0.00 0.00 56 1030.9
20210226174518 37 64 2.0 7.0 0.00 0.00 0.00 56 1030.8
20210226173520 37 126 2.0 7.0 0.00 0.00 0.00 54 1030.6
20210226173053 37 81 2.0 10.0 0.00 0.00 0.00 53 1030.8
20210226172633 38 144 2.0 5.0 0.00 0.00 0.00 51 1031.0
20210226172018 39 37 1.0 3.0 0.00 0.00 0.00 50 1031.1
20210226171521 39 131 1.0 9.0 0.00 0.00 0.00 50 1031.0
20210226170529 39 283 1.0 8.0 0.00 0.00 0.00 42 1031.0
20210226165521 39 297 2.0 12.0 0.00 0.00 0.00 42 1031.0
20210226165056 39 44 1.0 3.0 0.00 0.00 0.00 42 1031.1
20210226164517 39 301 3.0 9.0 0.00 0.00 0.00 42 1031.1
20210226164017 39 290 3.0 10.0 0.00 0.00 0.00 41 1031.3
20210226163025 39 292 2.0 5.0 0.00 0.00 0.00 42 1031.3
20210226162538 38 335 1.0 5.0 0.00 0.00 0.00 43 1031.2
20210226162018 38 340 2.0 5.0 0.00 0.00 0.00 42 1031.1
20210226161520 38 281 3.0 9.0 0.00 0.00 0.00 43 1031.3
20210226161020 38 25 0.0 3.0 0.00 0.00 0.00 42 1031.4
20210226160520 38 1 2.0 5.0 0.00 0.00 0.00 45 1031.7
20210226155524 38 293 2.0 6.0 0.00 0.00 0.00 45 1031.6
20210226155100 38 343 2.0 3.0 0.00 0.00 0.00 44 1031.5
20210226153522 37 347 3.0 8.0 0.00 0.00 0.00 44 1031.4
20210226152631 37 300 2.0 6.0 0.00 0.00 0.00 44 1031.3
20210226151520 37 315 1.0 3.0 0.00 0.00 0.00 45 1031.3
20210226151026 36 288 3.0 12.0 0.00 0.00 0.00 45 1031.3
20210226150519 36 274 1.0 5.0 0.00 0.00 0.00 46 1031.2
20210226150019 36 247 2.0 8.0 0.00 0.00 0.00 47 1031.1
20210226145519 36 279 1.0 6.0 0.00 0.00 0.00 45 1031.0
20210226145151 37 255 0.0 2.0 0.00 0.00 0.00 47 1031.0
20210226144520 36 348 0.0 3.0 0.00 0.00 0.00 48 1031.0
20210226144029 35 348 1.0 5.0 0.00 0.00 0.00 48 1030.9
20210226143517 35 359 2.0 8.0 0.00 0.00 0.00 47 1030.7
20210226143032 35 318 1.0 3.0 0.00 0.00 0.00 49 1030.5
20210226142537 35 324 0.0 3.0 0.00 0.00 0.00 49 1030.6
20210226142023 34 324 1.0 3.0 0.00 0.00 0.00 49 1030.6
20210226141510 34 329 1.0 3.0 0.00 0.00 0.00 50 1030.6
20210226140529 33 355 4.0 10.0 0.00 0.00 0.00 50 1030.7
20210226140020 33 344 0.0 3.0 0.00 0.00 0.00 51 1030.7
20210226135521 33 10 1.0 7.0 0.00 0.00 0.00 50 1030.6
20210226135132 33 299 1.0 3.0 0.00 0.00 0.00 51 1030.6
20210226133511 32 349 2.0 5.0 0.00 0.00 0.00 54 1030.5
20210226133024 32 322 2.0 3.0 0.00 0.00 0.00 54 1030.3
20210226132543 31 318 1.0 3.0 0.00 0.00 0.00 55 1030.1
20210226132021 31 270 1.0 3.0 0.00 0.00 0.00 58 1030.1
20210226131519 30 269 2.0 3.0 0.00 0.00 0.00 58 1030.0
20210226131018 29 267 3.0 7.0 0.00 0.00 0.00 59 1029.9
20210226125546 25 268 0.0 1.0 0.00 0.00 0.00 74 1029.7
20210226124537 24 268 0.0 1.0 0.00 0.00 0.00 81 1029.5
20210226124023 23 268 0.0 0.0 0.00 0.00 0.00 82 1029.5
20210226123519 23 268 0.0 0.0 0.00 0.00 0.00 82 1029.5
20210226122548 23 268 0.0 0.0 0.00 0.00 0.00 81 1029.3
20210226121524 23 268 0.0 0.0 0.00 0.00 0.00 80 1029.2
20210226121121 22 268 0.0 0.0 0.00 0.00 0.00 79 1029.0
20210226120538 22 268 0.0 0.0 0.00 0.00 0.00 79 1029.0
20210226120024 22 268 0.0 0.0 0.00 0.00 0.00 79 1028.8
20210226115331 23 268 0.0 0.0 0.00 0.00 0.00 78 1028.3
20210226114523 23 268 0.0 0.0 0.00 0.00 0.00 78 1028.3
20210226114022 23 268 0.0 0.0 0.00 0.00 0.00 78 1028.2
20210226113520 23 268 0.0 0.0 0.00 0.00 0.00 78 1028.1
20210226112019 23 268 0.0 0.0 0.00 0.00 0.00 78 1027.8
20210226111524 23 268 0.0 0.0 0.00 0.00 0.00 78 1027.7
20210226110528 23 268 0.0 0.0 0.00 0.00 0.00 76 1027.6
20210226105525 23 268 0.0 0.0 0.00 0.00 0.00 76 1027.4
20210226105025 23 268 0.0 0.0 0.00 0.00 0.00 75 1027.2
20210226104027 23 268 0.0 0.0 0.00 0.00 0.00 76 1027.1
20210226103104 23 268 0.0 0.0 0.00 0.00 0.00 76 1026.9
20210226102718 23 268 0.0 2.0 0.00 0.00 0.00 75 1026.8
20210226102043 23 268 0.0 0.0 0.00 0.00 0.00 75 1026.8
20210226100522 24 268 0.0 0.0 0.00 0.00 0.00 75 1026.5